05.05.2024;14:00;74
05.05.2024;13:00;71
05.05.2024;12:00;72
05.05.2024;11:00;53
05.05.2024;10:00;16
05.05.2024;09:00;7
05.05.2024;08:00;4
05.05.2024;07:00;3
05.05.2024;06:00;4
05.05.2024;05:00;3
05.05.2024;04:00;8
05.05.2024;03:00;7
05.05.2024;02:00;8
05.05.2024;01:00;9
05.05.2024;00:00;9
04.05.2024;23:00;27
04.05.2024;22:00;58
04.05.2024;21:00;67
04.05.2024;20:00;86
04.05.2024;19:00;91
04.05.2024;18:00;87
04.05.2024;17:00;80
04.05.2024;16:00;69
04.05.2024;15:00;72
04.05.2024;14:00;67
04.05.2024;13:00;62
04.05.2024;12:00;46
04.05.2024;11:00;40
04.05.2024;10:00;34
04.05.2024;09:00;31
04.05.2024;08:00;34
04.05.2024;07:00;37
04.05.2024;06:00;43
04.05.2024;05:00;40
04.05.2024;04:00;41
04.05.2024;03:00;45
04.05.2024;02:00;50
04.05.2024;01:00;49
04.05.2024;00:00;46
03.05.2024;23:00;45
03.05.2024;22:00;54
03.05.2024;21:00;64
03.05.2024;20:00;65
03.05.2024;19:00;68
03.05.2024;18:00;68
03.05.2024;17:00;66
03.05.2024;16:00;72
03.05.2024;15:00;71
